Tracking 19562 objects as of 24-Mar-2019
HD Live streaming from Space Station
objects crossing your sky now

COSMOS 803

Track COSMOS 803 now!
10-day predictions
COSMOS 803 is classified as:


NORAD ID: 8688
Int'l Code: 1976-014A
Perigee: 447.8 km
Apogee: 486.3 km
Inclination: 65.8 °
Period: 93.8 minutes
Semi major axis: 6838 km
RCS: 1.3519 m2 (large)
Launch date: February 12, 1976
Source: Commonwealth of Independent States (former USSR) (CIS)
Launch site: PLESETSK MISSILE AND SPACE COMPLEX (PKMTR)
aabbcc
Your satellite tracking list
Your tracking list is empty




NASA's NSSDC Master Catalog

Two Line Element Set (TLE):
1  8688U 76014A   19082.81754626 +.00000105 +00000-0 +95795-5 0  9993
2  8688 065.8436 234.2707 0028145 289.1491 070.6607 15.35333291384335
Source of the keplerian elements: AFSPC